Retour au catalogue

SKYBEE-A01

ActifCommunicationsSSO
NORAD 62671·PAYLOAD·🇩🇪 Germany

Lancé Jan 14, 2025 depuis Vandenberg Space Force Base

Loading…

Prochains Passages (prochaines 24 heures)

TLE

FraisSource: Space-Track

Époque: Sep 14, 2026, 13:05 UTC

1 62671U 25009BQ  26257.54567649  .00001854  00000-0  85744-4 0  9996
2 62671  97.3927 334.5401 0006019  35.9893 324.1747 15.21370973149925

Suivez SKYBEE-A01 en temps réel avec AllMySat

Download on the App Store